Year,Month,Day,Hour,Minute,Value (Times are PST for temperature in C)
2010,09,30,00,00,8.90
2010,09,30,00,01,8.90
2010,09,30,00,02,8.90
2010,09,30,00,03,8.90
2010,09,30,00,04,8.90
2010,09,30,00,05,8.90
2010,09,30,00,06,8.90
2010,09,30,00,07,8.80
2010,09,30,00,08,8.80
2010,09,30,00,09,8.80
2010,09,30,00,10,8.80
2010,09,30,00,11,8.80
2010,09,30,00,12,8.80
2010,09,30,00,13,8.80
2010,09,30,00,14,8.80
2010,09,30,00,15,8.80
2010,09,30,00,16,8.80
2010,09,30,00,17,8.70
2010,09,30,00,18,8.70
2010,09,30,00,19,8.70
2010,09,30,00,20,8.70
2010,09,30,00,21,8.70
2010,09,30,00,22,8.70
2010,09,30,00,23,8.70
2010,09,30,00,24,8.70
2010,09,30,00,25,8.70
2010,09,30,00,26,8.70
2010,09,30,00,27,8.70
2010,09,30,00,28,8.70
2010,09,30,00,29,8.70
2010,09,30,00,30,8.60
2010,09,30,00,31,8.60
2010,09,30,00,32,8.60
2010,09,30,00,33,8.60
2010,09,30,00,34,8.60
2010,09,30,00,35,8.60
2010,09,30,00,36,8.60
2010,09,30,00,37,8.50
2010,09,30,00,38,8.50
2010,09,30,00,39,8.50
2010,09,30,00,40,8.50
2010,09,30,00,41,8.50
2010,09,30,00,42,8.40
2010,09,30,00,43,8.40
2010,09,30,00,44,8.40
2010,09,30,00,45,8.40
2010,09,30,00,46,8.40
2010,09,30,00,47,8.40
2010,09,30,00,48,8.40
2010,09,30,00,49,8.40
2010,09,30,00,50,8.40
2010,09,30,00,51,8.40
2010,09,30,00,52,8.40
2010,09,30,00,53,8.40
2010,09,30,00,54,8.40
2010,09,30,00,55,8.40
2010,09,30,00,56,8.30
2010,09,30,00,57,8.30
2010,09,30,00,58,8.30
2010,09,30,00,59,8.30
2010,09,30,01,00,8.30
2010,09,30,01,01,8.30
2010,09,30,01,02,8.30
2010,09,30,01,03,8.30
2010,09,30,01,04,8.30
2010,09,30,01,05,8.30
2010,09,30,01,06,8.30
2010,09,30,01,07,8.30
2010,09,30,01,08,8.30
2010,09,30,01,09,8.30
2010,09,30,01,10,8.30
2010,09,30,01,11,8.20
2010,09,30,01,12,8.20
2010,09,30,01,13,8.20
2010,09,30,01,14,8.20
2010,09,30,01,15,8.20
2010,09,30,01,16,8.20
2010,09,30,01,17,8.20
2010,09,30,01,18,8.20
2010,09,30,01,19,8.20
2010,09,30,01,20,8.20
2010,09,30,01,21,8.20
2010,09,30,01,22,8.10
2010,09,30,01,23,8.10
2010,09,30,01,24,8.10
2010,09,30,01,25,8.10
2010,09,30,01,26,8.10
2010,09,30,01,27,8.10
2010,09,30,01,28,8.10
2010,09,30,01,29,8.10
2010,09,30,01,30,8.00
2010,09,30,01,31,8.00
2010,09,30,01,32,8.00
2010,09,30,01,33,8.00
2010,09,30,01,34,8.10
2010,09,30,01,35,8.00
2010,09,30,01,36,8.00
2010,09,30,01,37,8.00
2010,09,30,01,38,8.00
2010,09,30,01,39,8.00
2010,09,30,01,40,8.00
2010,09,30,01,41,8.00
2010,09,30,01,42,8.00
2010,09,30,01,43,8.00
2010,09,30,01,44,7.90
2010,09,30,01,45,7.90
2010,09,30,01,46,7.90
2010,09,30,01,47,7.90
2010,09,30,01,48,7.90
2010,09,30,01,49,7.90
2010,09,30,01,50,7.90
2010,09,30,01,51,7.80
2010,09,30,01,52,7.80
2010,09,30,01,53,7.80
2010,09,30,01,54,7.80
2010,09,30,01,55,7.80
2010,09,30,01,56,7.80
2010,09,30,01,57,7.80
2010,09,30,01,58,7.80
2010,09,30,01,59,7.80
2010,09,30,02,00,7.80
2010,09,30,02,01,7.80
2010,09,30,02,02,7.80
2010,09,30,02,03,7.80
2010,09,30,02,04,7.80
2010,09,30,02,05,7.80
2010,09,30,02,06,7.80
2010,09,30,02,07,7.80
2010,09,30,02,08,7.80
2010,09,30,02,09,7.80
2010,09,30,02,10,7.70
2010,09,30,02,11,7.70
2010,09,30,02,12,7.70
2010,09,30,02,13,7.70
2010,09,30,02,14,7.70
2010,09,30,02,15,7.70
2010,09,30,02,16,7.70
2010,09,30,02,17,7.70
2010,09,30,02,18,7.70
2010,09,30,02,19,7.70
2010,09,30,02,20,7.70
2010,09,30,02,21,7.70
2010,09,30,02,22,7.70
2010,09,30,02,23,7.70
2010,09,30,02,24,7.70
2010,09,30,02,25,7.70
2010,09,30,02,26,7.70
2010,09,30,02,27,7.70
2010,09,30,02,28,7.60
2010,09,30,02,29,7.60
2010,09,30,02,30,7.60
2010,09,30,02,31,7.60
2010,09,30,02,32,7.60
2010,09,30,02,33,7.60
2010,09,30,02,34,7.60
2010,09,30,02,35,7.60
2010,09,30,02,36,7.60
2010,09,30,02,37,7.60
2010,09,30,02,38,7.60
2010,09,30,02,39,7.60
2010,09,30,02,40,7.60
2010,09,30,02,41,7.60
2010,09,30,02,42,7.60
2010,09,30,02,43,7.60
2010,09,30,02,44,7.60
2010,09,30,02,45,7.60
2010,09,30,02,46,7.60
2010,09,30,02,47,7.60
2010,09,30,02,48,7.60
2010,09,30,02,49,7.60
2010,09,30,02,50,7.50
2010,09,30,02,51,7.50
2010,09,30,02,52,7.50
2010,09,30,02,53,7.50
2010,09,30,02,54,7.50
2010,09,30,02,55,7.50
2010,09,30,02,56,7.50
2010,09,30,02,57,7.50
2010,09,30,02,58,7.60
2010,09,30,02,59,7.60
2010,09,30,03,00,7.60
2010,09,30,03,01,7.60
2010,09,30,03,02,7.60
2010,09,30,03,03,7.60
2010,09,30,03,04,7.60
2010,09,30,03,05,7.60
2010,09,30,03,06,7.60
2010,09,30,03,07,7.60
2010,09,30,03,08,7.60
2010,09,30,03,09,7.60
2010,09,30,03,10,7.50
2010,09,30,03,11,7.50
2010,09,30,03,12,7.50
2010,09,30,03,13,7.50
2010,09,30,03,14,7.50
2010,09,30,03,15,7.40
2010,09,30,03,16,7.40
2010,09,30,03,17,7.40
2010,09,30,03,18,7.40
2010,09,30,03,19,7.40
2010,09,30,03,20,7.40
2010,09,30,03,21,7.40
2010,09,30,03,22,7.40
2010,09,30,03,23,7.40
2010,09,30,03,24,7.40
2010,09,30,03,25,7.40
2010,09,30,03,26,7.40
2010,09,30,03,27,7.40
2010,09,30,03,28,7.40
2010,09,30,03,29,7.40
2010,09,30,03,30,7.40
2010,09,30,03,31,7.40
2010,09,30,03,32,7.40
2010,09,30,03,33,7.40
2010,09,30,03,34,7.40
2010,09,30,03,35,7.40
2010,09,30,03,36,7.40
2010,09,30,03,37,7.40
2010,09,30,03,38,7.40
2010,09,30,03,39,7.40
2010,09,30,03,40,7.30
2010,09,30,03,41,7.30
2010,09,30,03,42,7.30
2010,09,30,03,43,7.30
2010,09,30,03,44,7.30
2010,09,30,03,45,7.30
2010,09,30,03,46,7.30
2010,09,30,03,47,7.30
2010,09,30,03,48,7.40
2010,09,30,03,49,7.40
2010,09,30,03,50,7.40
2010,09,30,03,51,7.30
2010,09,30,03,52,7.20
2010,09,30,03,53,7.20
2010,09,30,03,54,7.20
2010,09,30,03,55,7.20
2010,09,30,03,56,7.20
2010,09,30,03,57,7.20
2010,09,30,03,58,7.20
2010,09,30,03,59,7.20
2010,09,30,04,00,7.20
2010,09,30,04,01,7.20
2010,09,30,04,02,7.20
2010,09,30,04,03,7.20
2010,09,30,04,04,7.20
2010,09,30,04,05,7.20
2010,09,30,04,06,7.20
2010,09,30,04,07,7.20
2010,09,30,04,08,7.30
2010,09,30,04,09,7.30
2010,09,30,04,10,7.30
2010,09,30,04,11,7.30
2010,09,30,04,12,7.30
2010,09,30,04,13,7.30
2010,09,30,04,14,7.30
2010,09,30,04,15,7.30
2010,09,30,04,16,7.30
2010,09,30,04,17,7.30
2010,09,30,04,18,7.30
2010,09,30,04,19,7.40
2010,09,30,04,20,7.40
2010,09,30,04,21,7.40
2010,09,30,04,22,7.50
2010,09,30,04,23,7.50
2010,09,30,04,24,7.50
2010,09,30,04,25,7.50
2010,09,30,04,26,7.40
2010,09,30,04,27,7.40
2010,09,30,04,28,7.40
2010,09,30,04,29,7.40
2010,09,30,04,30,7.50
2010,09,30,04,31,7.50
2010,09,30,04,32,7.40
2010,09,30,04,33,7.40
2010,09,30,04,34,7.40
2010,09,30,04,35,7.40
2010,09,30,04,36,7.40
2010,09,30,04,37,7.40
2010,09,30,04,38,7.40
2010,09,30,04,39,7.40
2010,09,30,04,40,7.40
2010,09,30,04,41,7.40
2010,09,30,04,42,7.40
2010,09,30,04,43,7.40
2010,09,30,04,44,7.40
2010,09,30,04,45,7.40
2010,09,30,04,46,7.40
2010,09,30,04,47,7.40
2010,09,30,04,48,7.40
2010,09,30,04,49,7.40
2010,09,30,04,50,7.40
2010,09,30,04,51,7.40
2010,09,30,04,52,7.40
2010,09,30,04,53,7.40
2010,09,30,04,54,7.40
2010,09,30,04,55,7.40
2010,09,30,04,56,7.50
2010,09,30,04,57,7.50
2010,09,30,04,58,7.50
2010,09,30,04,59,7.50
2010,09,30,05,00,7.50
2010,09,30,05,01,7.50
2010,09,30,05,02,7.50
2010,09,30,05,03,7.60
2010,09,30,05,04,7.60
2010,09,30,05,05,7.60
2010,09,30,05,06,7.50
2010,09,30,05,07,7.50
2010,09,30,05,08,7.50
2010,09,30,05,09,7.50
2010,09,30,05,10,7.60
2010,09,30,05,11,7.60
2010,09,30,05,12,7.60
2010,09,30,05,13,7.60
2010,09,30,05,14,7.60
2010,09,30,05,15,7.60
2010,09,30,05,16,7.60
2010,09,30,05,17,7.60
2010,09,30,05,18,7.60
2010,09,30,05,19,7.60
2010,09,30,05,20,7.60
2010,09,30,05,21,7.60
2010,09,30,05,22,7.60
2010,09,30,05,23,7.60
2010,09,30,05,24,7.60
2010,09,30,05,25,7.70
2010,09,30,05,26,7.70
2010,09,30,05,27,7.70
2010,09,30,05,28,7.70
2010,09,30,05,29,7.70
2010,09,30,05,30,7.70
2010,09,30,05,31,7.70
2010,09,30,05,32,7.70
2010,09,30,05,33,7.70
2010,09,30,05,34,7.70
2010,09,30,05,35,7.70
2010,09,30,05,36,7.70
2010,09,30,05,37,7.70
2010,09,30,05,38,7.70
2010,09,30,05,39,7.70
2010,09,30,05,40,7.60
2010,09,30,05,41,7.60
2010,09,30,05,42,7.60
2010,09,30,05,43,7.60
2010,09,30,05,44,7.60
2010,09,30,05,45,7.60
2010,09,30,05,46,7.60
2010,09,30,05,47,7.60
2010,09,30,05,48,7.60
2010,09,30,05,49,7.60
2010,09,30,05,50,7.60
2010,09,30,05,51,7.60
2010,09,30,05,52,7.60
2010,09,30,05,53,7.60
2010,09,30,05,54,7.60
2010,09,30,05,55,7.60
2010,09,30,05,56,7.60
2010,09,30,05,57,7.60
2010,09,30,05,58,7.60
2010,09,30,05,59,7.70
2010,09,30,06,00,7.70
2010,09,30,06,01,7.70
2010,09,30,06,02,7.70
2010,09,30,06,03,7.70
2010,09,30,06,04,7.70
2010,09,30,06,05,7.60
2010,09,30,06,06,7.60
2010,09,30,06,07,7.60
2010,09,30,06,08,7.60
2010,09,30,06,09,7.60
2010,09,30,06,10,7.60
2010,09,30,06,11,7.60
2010,09,30,06,12,7.50
2010,09,30,06,13,7.50
2010,09,30,06,14,7.50
2010,09,30,06,15,7.50
2010,09,30,06,16,7.60
2010,09,30,06,17,7.60
2010,09,30,06,18,7.60
2010,09,30,06,19,7.60
2010,09,30,06,20,7.60
2010,09,30,06,21,7.70
2010,09,30,06,22,7.70
2010,09,30,06,23,7.70
2010,09,30,06,24,7.70
2010,09,30,06,25,7.70
2010,09,30,06,26,7.80
2010,09,30,06,27,7.70
2010,09,30,06,28,7.70
2010,09,30,06,29,7.70
2010,09,30,06,30,7.70
2010,09,30,06,31,7.70
2010,09,30,06,32,7.70
2010,09,30,06,33,7.70
2010,09,30,06,34,7.60
2010,09,30,06,35,7.60
2010,09,30,06,36,7.60
2010,09,30,06,37,7.60
2010,09,30,06,38,7.60
2010,09,30,06,39,7.70
2010,09,30,06,40,7.70
2010,09,30,06,41,7.70
2010,09,30,06,42,7.80
2010,09,30,06,43,7.80
2010,09,30,06,44,7.80
2010,09,30,06,45,7.80
2010,09,30,06,46,7.70
2010,09,30,06,47,7.70
2010,09,30,06,48,7.70
2010,09,30,06,49,7.80
2010,09,30,06,50,7.90
2010,09,30,06,51,8.10
2010,09,30,06,52,8.30
2010,09,30,06,53,8.40
2010,09,30,06,54,8.40
2010,09,30,06,55,8.50
2010,09,30,06,56,8.50
2010,09,30,06,57,8.50
2010,09,30,06,58,8.50
2010,09,30,06,59,8.50
2010,09,30,07,00,8.40
2010,09,30,07,01,8.40
2010,09,30,07,02,8.40
2010,09,30,07,03,8.40
2010,09,30,07,04,8.40
2010,09,30,07,05,8.40
2010,09,30,07,06,8.40
2010,09,30,07,07,8.40
2010,09,30,07,08,8.40
2010,09,30,07,09,8.40
2010,09,30,07,10,8.40
2010,09,30,07,11,8.40
2010,09,30,07,12,8.40
2010,09,30,07,13,8.30
2010,09,30,07,14,8.30
2010,09,30,07,15,8.30
2010,09,30,07,16,8.20
2010,09,30,07,17,8.20
2010,09,30,07,18,8.20
2010,09,30,07,19,8.10
2010,09,30,07,20,8.10
2010,09,30,07,21,8.10
2010,09,30,07,22,8.00
2010,09,30,07,23,8.00
2010,09,30,07,24,7.90
2010,09,30,07,25,7.90
2010,09,30,07,26,7.90
2010,09,30,07,27,7.90
2010,09,30,07,28,8.00
2010,09,30,07,29,8.00
2010,09,30,07,30,8.10
2010,09,30,07,31,8.10
2010,09,30,07,32,8.10
2010,09,30,07,33,8.10
2010,09,30,07,34,8.10
2010,09,30,07,35,8.10
2010,09,30,07,36,8.00
2010,09,30,07,37,8.00
2010,09,30,07,38,8.00
2010,09,30,07,39,8.00
2010,09,30,07,40,8.00
2010,09,30,07,41,8.00
2010,09,30,07,42,8.00
2010,09,30,07,43,8.10
2010,09,30,07,44,8.20
2010,09,30,07,45,8.20
2010,09,30,07,46,8.30
2010,09,30,07,47,8.40
2010,09,30,07,48,8.40
2010,09,30,07,49,8.50
2010,09,30,07,50,8.50
2010,09,30,07,51,8.40
2010,09,30,07,52,8.40
2010,09,30,07,53,8.50
2010,09,30,07,54,8.50
2010,09,30,07,55,8.60
2010,09,30,07,56,8.60
2010,09,30,07,57,8.70
2010,09,30,07,58,8.70
2010,09,30,07,59,8.70
2010,09,30,08,00,8.70
2010,09,30,08,01,8.70
2010,09,30,08,02,8.80
2010,09,30,08,03,8.80
2010,09,30,08,04,8.90
2010,09,30,08,05,8.90
2010,09,30,08,06,8.90
2010,09,30,08,07,8.90
2010,09,30,08,08,8.90
2010,09,30,08,09,9.00
2010,09,30,08,10,9.00
2010,09,30,08,11,9.00
2010,09,30,08,12,9.10
2010,09,30,08,13,9.10
2010,09,30,08,14,9.10
2010,09,30,08,15,9.10
2010,09,30,08,16,9.20
2010,09,30,08,17,9.20
2010,09,30,08,18,9.30
2010,09,30,08,19,9.30
2010,09,30,08,20,9.30
2010,09,30,08,21,9.40
2010,09,30,08,22,9.40
2010,09,30,08,23,9.50
2010,09,30,08,24,9.50
2010,09,30,08,25,9.60
2010,09,30,08,26,9.60
2010,09,30,08,27,9.70
2010,09,30,08,28,9.70
2010,09,30,08,29,9.70
2010,09,30,08,30,9.80
2010,09,30,08,31,9.80
2010,09,30,08,32,9.80
2010,09,30,08,33,9.80
2010,09,30,08,34,9.80
2010,09,30,08,35,9.90
2010,09,30,08,36,9.90
2010,09,30,08,37,9.90
2010,09,30,08,38,10.00
2010,09,30,08,39,10.00
2010,09,30,08,40,10.00
2010,09,30,08,41,10.10
2010,09,30,08,42,10.10
2010,09,30,08,43,10.20
2010,09,30,08,44,10.20
2010,09,30,08,45,10.20
2010,09,30,08,46,10.20
2010,09,30,08,47,10.20
2010,09,30,08,48,10.20
2010,09,30,08,49,10.30
2010,09,30,08,50,10.30
2010,09,30,08,51,10.30
2010,09,30,08,52,10.30
2010,09,30,08,53,10.30
2010,09,30,08,54,10.30
2010,09,30,08,55,10.40
2010,09,30,08,56,10.40
2010,09,30,08,57,10.40
2010,09,30,08,58,10.50
2010,09,30,08,59,10.50
2010,09,30,09,00,10.60
2010,09,30,09,01,10.60
2010,09,30,09,02,10.60
2010,09,30,09,03,10.70
2010,09,30,09,04,10.70
2010,09,30,09,05,10.70
2010,09,30,09,06,10.80
2010,09,30,09,07,10.80
2010,09,30,09,08,10.80
2010,09,30,09,09,10.90
2010,09,30,09,10,10.90
2010,09,30,09,11,10.90
2010,09,30,09,12,11.00
2010,09,30,09,13,11.10
2010,09,30,09,14,11.10
2010,09,30,09,15,11.20
2010,09,30,09,16,11.30
2010,09,30,09,17,11.30
2010,09,30,09,18,11.30
2010,09,30,09,19,11.30
2010,09,30,09,20,11.30
2010,09,30,09,21,11.30
2010,09,30,09,22,11.40
2010,09,30,09,23,11.40
2010,09,30,09,24,11.40
2010,09,30,09,25,11.40
2010,09,30,09,26,11.40
2010,09,30,09,27,11.50
2010,09,30,09,28,11.50
2010,09,30,09,29,11.60
2010,09,30,09,30,11.60
2010,09,30,09,31,11.70
2010,09,30,09,32,11.70
2010,09,30,09,33,11.80
2010,09,30,09,34,11.90
2010,09,30,09,35,12.00
2010,09,30,09,36,12.10
2010,09,30,09,37,12.20
2010,09,30,09,38,12.20
2010,09,30,09,39,12.30
2010,09,30,09,40,12.30
2010,09,30,09,41,12.40
2010,09,30,09,42,12.50
2010,09,30,09,43,12.60
2010,09,30,09,44,12.60
2010,09,30,09,45,12.70
2010,09,30,09,46,12.70
2010,09,30,09,47,12.80
2010,09,30,09,48,12.80
2010,09,30,09,49,12.80
2010,09,30,09,50,12.80
2010,09,30,09,51,12.80
2010,09,30,09,52,12.80
2010,09,30,09,53,12.80
2010,09,30,09,54,12.80
2010,09,30,09,55,12.90
2010,09,30,09,56,12.90
2010,09,30,09,57,12.90
2010,09,30,09,58,12.90
2010,09,30,09,59,12.90
2010,09,30,10,00,13.00
2010,09,30,10,01,13.00
2010,09,30,10,02,13.00
2010,09,30,10,03,13.00
2010,09,30,10,04,13.00
2010,09,30,10,05,13.00
2010,09,30,10,06,13.10
2010,09,30,10,07,13.10
2010,09,30,10,08,13.10
2010,09,30,10,09,13.10
2010,09,30,10,10,13.10
2010,09,30,10,11,13.10
2010,09,30,10,12,13.10
2010,09,30,10,13,13.20
2010,09,30,10,14,13.20
2010,09,30,10,15,13.20
2010,09,30,10,16,13.30
2010,09,30,10,17,13.40
2010,09,30,10,18,13.40
2010,09,30,10,19,13.40
2010,09,30,10,20,13.50
2010,09,30,10,21,13.40
2010,09,30,10,22,13.40
2010,09,30,10,23,13.40
2010,09,30,10,24,13.40
2010,09,30,10,25,13.50
2010,09,30,10,26,13.50
2010,09,30,10,27,13.60
2010,09,30,10,28,13.60
2010,09,30,10,29,13.60
2010,09,30,10,30,13.70
2010,09,30,10,31,13.70
2010,09,30,10,32,13.70
2010,09,30,10,33,13.70
2010,09,30,10,34,13.70
2010,09,30,10,35,13.80
2010,09,30,10,36,13.80
2010,09,30,10,37,13.90
2010,09,30,10,38,13.90
2010,09,30,10,39,14.00
2010,09,30,10,40,14.00
2010,09,30,10,41,14.10
2010,09,30,10,42,14.10
2010,09,30,10,43,14.20
2010,09,30,10,44,14.20
2010,09,30,10,45,14.30
2010,09,30,10,46,14.30
2010,09,30,10,47,14.30
2010,09,30,10,48,14.40
2010,09,30,10,49,14.40
2010,09,30,10,50,14.40
2010,09,30,10,51,14.40
2010,09,30,10,52,14.40
2010,09,30,10,53,14.40
2010,09,30,10,54,14.40
2010,09,30,10,55,14.50
2010,09,30,10,56,14.50
2010,09,30,10,57,14.60
2010,09,30,10,58,14.60
2010,09,30,10,59,14.70
2010,09,30,11,00,14.70
2010,09,30,11,01,14.80
2010,09,30,11,02,14.80
2010,09,30,11,03,14.80
2010,09,30,11,04,14.80
2010,09,30,11,05,14.80
2010,09,30,11,06,14.80
2010,09,30,11,07,14.80
2010,09,30,11,08,14.80
2010,09,30,11,09,14.90
2010,09,30,11,10,14.90
2010,09,30,11,11,14.90
2010,09,30,11,12,14.90
2010,09,30,11,13,14.90
2010,09,30,11,14,15.00
2010,09,30,11,15,15.00
2010,09,30,11,16,15.00
2010,09,30,11,17,15.00
2010,09,30,11,18,15.00
2010,09,30,11,19,15.00
2010,09,30,11,20,15.00
2010,09,30,11,21,15.00
2010,09,30,11,22,15.00
2010,09,30,11,23,15.10
2010,09,30,11,24,15.10
2010,09,30,11,25,15.20
2010,09,30,11,26,15.20
2010,09,30,11,27,15.20
2010,09,30,11,28,15.30
2010,09,30,11,29,15.30
2010,09,30,11,30,15.40
2010,09,30,11,31,15.40
2010,09,30,11,32,15.50
2010,09,30,11,33,15.60
2010,09,30,11,34,15.60
2010,09,30,11,35,15.60
2010,09,30,11,36,15.70
2010,09,30,11,37,15.70
2010,09,30,11,38,15.70
2010,09,30,11,39,15.70
2010,09,30,11,40,15.80
2010,09,30,11,41,15.80
2010,09,30,11,42,15.80
2010,09,30,11,43,15.90
2010,09,30,11,44,15.90
2010,09,30,11,45,15.90
2010,09,30,11,46,16.00
2010,09,30,11,47,16.00
2010,09,30,11,48,16.10
2010,09,30,11,49,16.20
2010,09,30,11,50,16.20
2010,09,30,11,51,16.20
2010,09,30,11,52,16.20
2010,09,30,11,53,16.30
2010,09,30,11,54,16.30
2010,09,30,11,55,16.30
2010,09,30,11,56,16.30
2010,09,30,11,57,16.30
2010,09,30,11,58,16.30
2010,09,30,11,59,16.40
2010,09,30,12,00,16.40
2010,09,30,12,01,16.50
2010,09,30,12,02,16.60
2010,09,30,12,03,16.70
2010,09,30,12,04,16.70
2010,09,30,12,05,16.80
2010,09,30,12,06,16.80
2010,09,30,12,07,16.80
2010,09,30,12,08,16.80
2010,09,30,12,09,16.80
2010,09,30,12,10,16.80
2010,09,30,12,11,16.80
2010,09,30,12,12,16.80
2010,09,30,12,13,16.90
2010,09,30,12,14,16.90
2010,09,30,12,15,16.90
2010,09,30,12,16,16.90
2010,09,30,12,17,16.90
2010,09,30,12,18,17.00
2010,09,30,12,19,17.00
2010,09,30,12,20,17.00
2010,09,30,12,21,17.00
2010,09,30,12,22,17.00
2010,09,30,12,23,17.00
2010,09,30,12,24,17.00
2010,09,30,12,25,17.10
2010,09,30,12,26,17.10
2010,09,30,12,27,17.20
2010,09,30,12,28,17.30
2010,09,30,12,29,17.30
2010,09,30,12,30,17.40
2010,09,30,12,31,17.40
2010,09,30,12,32,17.40
2010,09,30,12,33,17.40
2010,09,30,12,34,17.50
2010,09,30,12,35,17.50
2010,09,30,12,36,17.50
2010,09,30,12,37,17.50
2010,09,30,12,38,17.50
2010,09,30,12,39,17.50
2010,09,30,12,40,17.50
2010,09,30,12,41,17.60
2010,09,30,12,42,17.70
2010,09,30,12,43,17.80
2010,09,30,12,44,17.80
2010,09,30,12,45,17.90
2010,09,30,12,46,17.90
2010,09,30,12,47,18.00
2010,09,30,12,48,18.00
2010,09,30,12,49,18.00
2010,09,30,12,50,18.10
2010,09,30,12,51,18.10
2010,09,30,12,52,18.10
2010,09,30,12,53,18.10
2010,09,30,12,54,18.10
2010,09,30,12,55,18.10
2010,09,30,12,56,18.20
2010,09,30,12,57,18.20
2010,09,30,12,58,18.20
2010,09,30,12,59,18.30
2010,09,30,13,00,18.30
2010,09,30,13,01,18.30
2010,09,30,13,02,18.40
2010,09,30,13,03,18.40
2010,09,30,13,04,18.50
2010,09,30,13,05,18.50
2010,09,30,13,06,18.50
2010,09,30,13,07,18.60
2010,09,30,13,08,18.70
2010,09,30,13,09,18.70
2010,09,30,13,10,18.70
2010,09,30,13,11,18.80
2010,09,30,13,12,18.80
2010,09,30,13,13,18.80
2010,09,30,13,14,18.80
2010,09,30,13,15,18.80
2010,09,30,13,16,18.70
2010,09,30,13,17,18.70
2010,09,30,13,18,18.70
2010,09,30,13,19,18.70
2010,09,30,13,20,18.80
2010,09,30,13,21,18.80
2010,09,30,13,22,18.80
2010,09,30,13,23,18.80
2010,09,30,13,24,18.80
2010,09,30,13,25,18.90
2010,09,30,13,26,18.90
2010,09,30,13,27,19.00
2010,09,30,13,28,19.00
2010,09,30,13,29,19.10
2010,09,30,13,30,19.20
2010,09,30,13,31,19.30
2010,09,30,13,32,19.30
2010,09,30,13,33,19.40
2010,09,30,13,34,19.40
2010,09,30,13,35,19.40
2010,09,30,13,36,19.50
2010,09,30,13,37,19.50
2010,09,30,13,38,19.50
2010,09,30,13,39,19.60
2010,09,30,13,40,19.60
2010,09,30,13,41,19.60
2010,09,30,13,42,19.60
2010,09,30,13,43,19.60
2010,09,30,13,44,19.60
2010,09,30,13,45,19.60
2010,09,30,13,46,19.60
2010,09,30,13,47,19.60
2010,09,30,13,48,19.60
2010,09,30,13,49,19.60
2010,09,30,13,50,19.50
2010,09,30,13,51,19.50
2010,09,30,13,52,19.50
2010,09,30,13,53,19.50
2010,09,30,13,54,19.60
2010,09,30,13,55,19.70
2010,09,30,13,56,19.70
2010,09,30,13,57,19.80
2010,09,30,13,58,19.70
2010,09,30,13,59,19.70
2010,09,30,14,00,19.70
2010,09,30,14,01,19.70
2010,09,30,14,02,19.70
2010,09,30,14,03,19.70
2010,09,30,14,04,19.70
2010,09,30,14,05,19.80
2010,09,30,14,06,19.80
2010,09,30,14,07,19.90
2010,09,30,14,08,19.90
2010,09,30,14,09,19.80
2010,09,30,14,10,19.80
2010,09,30,14,11,19.80
2010,09,30,14,12,19.80
2010,09,30,14,13,19.80
2010,09,30,14,14,19.80
2010,09,30,14,15,19.80
2010,09,30,14,16,19.90
2010,09,30,14,17,19.90
2010,09,30,14,18,19.90
2010,09,30,14,19,19.90
2010,09,30,14,20,19.90
2010,09,30,14,21,19.90
2010,09,30,14,22,19.90
2010,09,30,14,23,19.90
2010,09,30,14,24,20.00
2010,09,30,14,25,20.00
2010,09,30,14,26,20.10
2010,09,30,14,27,20.10
2010,09,30,14,28,20.10
2010,09,30,14,29,20.10
2010,09,30,14,30,20.20
2010,09,30,14,31,20.20
2010,09,30,14,32,20.20
2010,09,30,14,33,20.30
2010,09,30,14,34,20.30
2010,09,30,14,35,20.30
2010,09,30,14,36,20.20
2010,09,30,14,37,20.20
2010,09,30,14,38,20.30
2010,09,30,14,39,20.30
2010,09,30,14,40,20.20
2010,09,30,14,41,20.20
2010,09,30,14,42,20.20
2010,09,30,14,43,20.10
2010,09,30,14,44,20.10
2010,09,30,14,45,20.10
2010,09,30,14,46,20.10
2010,09,30,14,47,20.10
2010,09,30,14,48,20.10
2010,09,30,14,49,20.10
2010,09,30,14,50,20.10
2010,09,30,14,51,20.10
2010,09,30,14,52,20.20
2010,09,30,14,53,20.20
2010,09,30,14,54,20.20
2010,09,30,14,55,20.30
2010,09,30,14,56,20.30
2010,09,30,14,57,20.30
2010,09,30,14,58,20.30
2010,09,30,14,59,20.30
2010,09,30,15,00,20.40
2010,09,30,15,01,20.40
2010,09,30,15,02,20.50
2010,09,30,15,03,20.50
2010,09,30,15,04,20.60
2010,09,30,15,05,20.60
2010,09,30,15,06,20.60
2010,09,30,15,07,20.70
2010,09,30,15,08,20.70
2010,09,30,15,09,20.70
2010,09,30,15,10,20.70
2010,09,30,15,11,20.70
2010,09,30,15,12,20.70
2010,09,30,15,13,20.70
2010,09,30,15,14,20.70
2010,09,30,15,15,20.70
2010,09,30,15,16,20.80
2010,09,30,15,17,20.80
2010,09,30,15,18,20.80
2010,09,30,15,19,20.80
2010,09,30,15,20,20.80
2010,09,30,15,21,20.80
2010,09,30,15,22,20.80
2010,09,30,15,23,20.80
2010,09,30,15,24,20.80
2010,09,30,15,25,20.90
2010,09,30,15,26,20.90
2010,09,30,15,27,20.90
2010,09,30,15,28,20.90
2010,09,30,15,29,20.90
2010,09,30,15,30,20.90
2010,09,30,15,31,20.90
2010,09,30,15,32,20.80
2010,09,30,15,33,20.90
2010,09,30,15,34,20.90
2010,09,30,15,35,20.90
2010,09,30,15,36,21.00
2010,09,30,15,37,20.90
2010,09,30,15,38,20.90
2010,09,30,15,39,21.00
2010,09,30,15,40,21.00
2010,09,30,15,41,21.00
2010,09,30,15,42,20.90
2010,09,30,15,43,20.90
2010,09,30,15,44,20.80
2010,09,30,15,45,20.80
2010,09,30,15,46,20.80
2010,09,30,15,47,20.80
2010,09,30,15,48,20.80
2010,09,30,15,49,20.80
2010,09,30,15,50,20.80
2010,09,30,15,51,20.80
2010,09,30,15,52,20.80
2010,09,30,15,53,20.80
2010,09,30,15,54,20.80
2010,09,30,15,55,20.80
2010,09,30,15,56,20.90
2010,09,30,15,57,20.90
2010,09,30,15,58,20.90
2010,09,30,15,59,20.90
2010,09,30,16,00,20.90
2010,09,30,16,01,20.90
2010,09,30,16,02,20.90
2010,09,30,16,03,20.90
2010,09,30,16,04,20.90
2010,09,30,16,05,20.90
2010,09,30,16,06,20.90
2010,09,30,16,07,20.90
2010,09,30,16,08,20.90
2010,09,30,16,09,20.90
2010,09,30,16,10,20.90
2010,09,30,16,11,20.90
2010,09,30,16,12,20.90
2010,09,30,16,13,20.90
2010,09,30,16,14,20.80
2010,09,30,16,15,20.80
2010,09,30,16,16,20.80
2010,09,30,16,17,20.80
2010,09,30,16,18,20.80
2010,09,30,16,19,20.80
2010,09,30,16,20,20.80
2010,09,30,16,21,20.80
2010,09,30,16,22,20.80
2010,09,30,16,23,20.80
2010,09,30,16,24,20.80
2010,09,30,16,25,20.80
2010,09,30,16,26,20.80
2010,09,30,16,27,20.90
2010,09,30,16,28,20.90
2010,09,30,16,29,20.90
2010,09,30,16,30,20.90
2010,09,30,16,31,21.00
2010,09,30,16,32,21.00
2010,09,30,16,33,21.10
2010,09,30,16,34,21.10
2010,09,30,16,35,21.10
2010,09,30,16,36,21.10
2010,09,30,16,37,21.10
2010,09,30,16,38,21.10
2010,09,30,16,39,21.10
2010,09,30,16,40,21.10
2010,09,30,16,41,21.20
2010,09,30,16,42,21.20
2010,09,30,16,43,21.20
2010,09,30,16,44,21.20
2010,09,30,16,45,21.20
2010,09,30,16,46,21.20
2010,09,30,16,47,21.20
2010,09,30,16,48,21.20
2010,09,30,16,49,21.20
2010,09,30,16,50,21.20
2010,09,30,16,51,21.20
2010,09,30,16,52,21.20
2010,09,30,16,53,21.20
2010,09,30,16,54,21.20
2010,09,30,16,55,21.10
2010,09,30,16,56,21.10
2010,09,30,16,57,21.10
2010,09,30,16,58,21.10
2010,09,30,16,59,21.10
2010,09,30,17,00,21.10
2010,09,30,17,01,21.10
2010,09,30,17,02,21.10
2010,09,30,17,03,21.20
2010,09,30,17,04,21.20
2010,09,30,17,05,21.20
2010,09,30,17,06,21.20
2010,09,30,17,07,21.20
2010,09,30,17,08,21.20
2010,09,30,17,09,21.20
2010,09,30,17,10,21.10
2010,09,30,17,11,21.10
2010,09,30,17,12,21.10
2010,09,30,17,13,21.00
2010,09,30,17,14,21.10
2010,09,30,17,15,21.00
2010,09,30,17,16,21.00
2010,09,30,17,17,21.00
2010,09,30,17,18,21.00
2010,09,30,17,19,20.90
2010,09,30,17,20,20.90
2010,09,30,17,21,20.90
2010,09,30,17,22,21.00
2010,09,30,17,23,21.00
2010,09,30,17,24,21.00
2010,09,30,17,25,21.00
2010,09,30,17,26,21.00
2010,09,30,17,27,21.00
2010,09,30,17,28,21.00
2010,09,30,17,29,21.00
2010,09,30,17,30,21.00
2010,09,30,17,31,21.00
2010,09,30,17,32,21.00
2010,09,30,17,33,20.90
2010,09,30,17,34,20.90
2010,09,30,17,35,20.90
2010,09,30,17,36,20.80
2010,09,30,17,37,20.80
2010,09,30,17,38,20.70
2010,09,30,17,39,20.70
2010,09,30,17,40,20.60
2010,09,30,17,41,20.60